GFSGL_700_spd_033.txt.gz
Wind_Speed
7 4 5 2 5 9 13 17 18 13 11 10 12 14 14 12 13 10 9 6 4 4 3 2 4 8 9 11 11 11 11 15 17 18 17 16 17 19 21 21 22 23 19
5 5 5 2 5 9 13 14 16 15 12 10 12 13 13 12 11 9 9 10 10 6 3 2 2 4 5 7 12 13 13 13 14 15 15 17 19 18 18 14 16 18 15
4 5 4 2 5 9 12 13 15 17 15 12 11 12 12 12 11 11 11 11 11 9 7 2 1 2 4 5 6 8 8 9 13 16 19 20 18 18 15 14 13 14 13
7 7 5 3 5 9 10 12 14 15 16 12 10 10 10 10 10 11 11 12 11 11 10 8 5 3 4 4 5 6 7 9 9 9 9 12 12 14 15 12 15 15 13
3 4 5 3 7 8 9 11 11 14 15 14 11 9 9 9 8 9 9 10 12 11 9 8 7 6 5 7 7 7 9 10 10 11 10 11 12 13 14 15 11 13 17
3 5 5 4 6 8 10 12 12 13 14 15 14 11 9 8 9 9 9 11 12 12 10 8 8 6 5 5 6 7 8 8 8 8 9 10 11 11 12 12 13 14 12
4 4 5 4 7 9 12 14 14 14 14 15 15 14 11 9 8 8 9 12 12 11 11 10 9 6 6 5 5 5 7 8 8 9 10 10 10 11 12 12 12 11 11
5 2 3 3 6 10 10 15 16 16 15 15 16 16 14 10 9 9 10 13 13 15 16 14 11 7 7 7 8 10 9 11 12 14 15 14 14 13 12 12 12 12 13
4 5 10 8 8 9 13 15 17 17 16 16 15 15 15 11 10 9 12 10 11 15 16 14 13 10 7 9 10 10 11 14 17 18 17 15 14 12 13 13 13 13 16
8 8 9 8 11 12 15 16 18 19 17 16 16 14 13 11 12 14 11 12 15 17 16 15 13 11 12 11 9 11 14 17 17 14 13 12 12 12 14 15 16 16 15
13 13 13 13 14 15 18 18 17 19 18 18 11 12 12 11 14 13 17 18 15 11 18 19 14 11 12 13 16 17 16 16 15 14 14 13 11 14 17 17 19 16 13
18 17 16 16 16 18 19 19 19 19 16 16 14 12 14 12 14 12 19 16 15 18 20 20 13 15 14 15 17 17 19 19 18 18 17 16 14 14 14 14 14 15 14
20 17 16 18 19 18 18 19 18 17 14 11 8 12 13 13 16 17 14 12 17 20 21 19 14 13 21 15 16 16 17 18 20 20 18 15 13 12 12 13 13 14 13
18 17 17 17 16 18 19 19 16 15 12 10 10 14 12 15 15 16 16 15 21 21 20 18 15 16 17 15 17 17 18 19 18 17 15 14 14 13 13 12 11 11 12
17 17 15 16 18 19 19 16 13 11 9 10 11 14 14 15 15 16 15 19 19 19 19 15 14 16 17 18 16 15 16 14 12 13 14 15 15 13 11 12 11 10 9
18 16 15 16 17 17 14 11 10 9 9 9 10 12 11 11 15 17 17 16 16 16 15 15 16 17 17 16 16 13 10 9 11 13 13 15 14 13 12 10 10 10 10
10 12 14 15 13 11 10 9 9 10 10 10 10 10 10 11 13 13 14 15 16 15 15 16 16 14 13 11 12 13 14 14 14 14 15 13 13 12 12 11 11 11 10
12 12 11 9 8 9 9 9 8 8 6 6 8 9 10 10 11 11 12 13 12 12 14 13 9 10 10 10 11 13 14 14 14 14 15 15 13 12 12 13 14 12 12
9 8 8 8 8 9 9 6 2 4 6 6 7 7 8 9 9 9 9 8 7 8 11 11 10 11 10 11 12 13 14 17 18 18 17 15 15 13 15 15 15 14 14
8 8 7 7 7 8 7 8 8 5 0 1 5 5 6 9 10 11 9 6 5 7 10 12 13 15 18 17 15 15 17 16 15 15 17 16 15 15 16 17 16 17 16
5 4 5 7 6 5 6 6 7 8 8 5 7 8 11 12 15 12 11 10 10 9 10 12 12 14 16 18 17 14 14 15 16 16 14 14 15 16 16 16 17 18 18
7 7 7 4 2 5 3 3 7 9 12 14 16 17 17 18 18 20 19 14 9 12 17 17 17 16 15 13 14 17 19 17 15 14 13 12 12 11 13 15 16 18 19
9 9 8 9 6 3 3 7 5 8 6 11 14 17 18 18 18 18 16 19 14 13 19 25 27 19 18 17 18 19 18 15 15 12 10 11 12 13 15 17 18 19 19
11 10 9 9 8 10 10 13 12 11 10 11 14 13 19 23 16 17 18 18 20 22 24 20 27 23 31 31 25 21 21 18 17 16 17 16 15 16 17 19 19 21 21
13 11 10 11 13 15 17 16 15 13 13 12 14 11 12 13 9 14 19 20 22 20 23 24 30 27 29 28 30 30 26 30 30 25 24 29 29 27 26 23 21 20 21
16 13 13 17 19 23 13 17 16 15 10 14 13 15 20 20 21 21 22 24 25 31 35 31 34 30 32 34 35 31 25 30 31 31 35 35 33 33 35 34 34 29 23

GFSGL_700_spd_036.txt.gz
Wind_Speed
11 8 8 3 1 4 7 9 12 10 6 7 8 10 10 9 8 9 9 8 4 3 2 2 4 6 9 11 9 9 10 12 17 16 19 20 18 16 17 18 18 19 19
13 10 10 5 1 4 6 8 10 9 7 7 8 9 10 9 8 8 9 9 9 7 5 3 1 4 7 9 11 12 11 12 13 16 17 16 16 18 18 18 18 15 14
15 15 11 5 1 3 5 6 9 9 8 8 8 8 9 10 10 10 10 11 11 9 7 3 1 2 4 5 7 7 8 10 11 14 16 17 19 18 17 16 16 17 15
17 15 9 5 1 4 6 6 8 9 10 8 6 6 7 7 8 8 8 9 10 8 7 6 4 2 1 2 4 5 7 9 10 10 10 10 12 15 13 14 14 16 18
13 10 7 6 3 4 6 8 8 8 10 12 9 5 4 5 6 7 7 10 11 10 9 6 4 3 3 4 5 5 6 8 9 10 11 12 12 11 14 16 20 19 16
11 10 9 6 3 4 6 8 9 9 10 11 11 10 6 4 4 5 6 8 9 9 10 10 9 7 4 3 4 4 4 5 6 7 8 9 11 12 13 14 15 14 14
9 10 7 5 3 2 5 8 8 8 9 10 11 11 9 5 3 4 5 6 6 6 10 10 9 7 6 5 5 6 7 7 8 9 10 11 12 12 13 14 13 13 13
4 7 8 4 6 5 5 8 12 10 9 9 9 10 10 7 3 5 6 7 8 10 11 10 9 9 8 7 8 9 10 10 11 13 14 15 15 15 15 13 12 12 13
7 10 1 6 3 8 7 10 13 11 9 9 10 9 9 6 4 5 6 7 10 12 13 11 10 10 9 10 11 11 11 14 16 17 16 15 14 14 14 14 15 15 16
20 9 6 9 10 8 10 12 15 14 13 12 9 11 7 5 5 5 5 7 11 11 14 15 18 14 10 11 12 13 16 18 17 16 15 14 13 13 14 14 15 17 18
13 13 8 12 13 12 12 16 16 16 14 14 11 10 7 6 9 9 8 10 10 10 14 18 21 21 10 11 12 14 15 15 15 17 15 15 17 18 18 18 18 18 19
14 14 14 17 17 15 16 19 18 19 18 14 11 10 8 12 12 10 9 11 14 13 15 19 18 17 14 16 17 15 15 16 16 17 17 17 18 18 17 17 16 15 16
20 20 17 16 16 16 16 17 18 19 18 12 8 5 10 9 9 15 14 12 18 15 21 21 20 18 16 16 14 15 17 18 19 20 19 18 15 14 16 16 16 17 15
17 17 16 16 16 15 16 18 18 18 15 10 6 8 10 11 13 13 15 15 18 18 22 21 19 17 15 15 16 17 17 17 18 18 17 16 15 14 15 15 14 14 15
14 15 16 16 14 15 17 17 15 13 11 8 8 9 13 16 16 12 12 14 20 21 20 18 17 16 16 16 16 15 15 14 14 15 16 16 17 17 15 16 14 12 12
14 15 16 14 12 13 15 13 10 9 9 9 10 11 13 13 10 14 17 17 17 16 17 17 17 16 17 16 14 12 10 10 11 14 16 17 18 17 17 14 16 15 14
11 10 10 10 11 12 10 9 9 10 10 10 9 9 9 10 11 12 13 14 15 15 15 15 15 15 13 11 11 12 14 15 14 15 16 17 16 17 16 15 14 13 14
10 10 10 10 8 8 8 8 9 8 7 7 7 7 7 7 8 9 10 12 12 13 13 12 12 11 8 11 13 14 15 17 17 17 17 17 17 15 16 15 16 16 16
11 9 8 8 6 6 7 6 6 6 6 6 5 6 7 6 6 5 6 8 10 10 9 9 9 9 10 11 12 14 16 18 20 21 21 17 16 16 16 16 16 17 17
9 8 8 9 7 5 4 4 3 5 5 5 4 4 5 6 7 8 9 8 8 7 6 7 10 13 15 16 14 13 15 16 17 18 19 20 17 15 14 16 17 18 19
9 10 12 7 4 4 5 5 3 4 4 3 3 3 5 7 8 9 10 9 9 5 5 8 13 18 20 20 20 18 17 18 19 19 18 16 16 16 16 16 16 17 18
11 9 6 5 6 7 8 9 8 8 6 7 9 10 12 12 12 13 12 13 12 11 14 17 19 21 19 16 18 22 25 26 24 18 15 15 13 13 14 16 16 17 19
11 9 7 6 6 7 10 8 10 11 13 13 14 14 14 14 16 16 14 15 16 15 16 17 17 26 21 26 25 27 23 22 24 23 22 18 16 18 20 18 18 20 22
11 8 8 7 7 8 7 10 10 12 14 16 16 13 15 18 19 19 16 16 21 22 19 21 22 25 24 28 30 30 29 29 26 23 26 28 29 29 25 24 24 24 24
11 11 9 9 10 12 15 19 19 16 18 19 20 21 21 20 19 21 20 25 27 28 24 25 27 30 29 32 31 30 34 33 32 29 30 30 29 28 34 36 39 30 30
10 9 8 9 15 20 22 23 23 21 22 22 19 21 21 19 21 23 23 23 23 26 29 30 33 35 35 36 35 36 38 39 38 36 34 32 32 32 33 32 32 34 28

GFSGL_700_spd_042.txt.gz
Wind_Speed
25 19 15 11 7 4 6 8 9 10 9 7 7 8 9 8 8 8 8 9 8 6 5 3 5 4 9 12 11 13 16 17 8 9 14 17 18 17 20 19 17 18 21
25 14 14 9 5 5 6 6 8 10 9 7 6 6 7 7 8 8 9 9 8 6 6 5 4 5 5 8 9 10 10 11 12 12 15 15 16 17 15 13 17 20 20
13 12 10 7 4 5 5 5 6 8 9 7 5 4 4 5 7 8 8 10 8 7 7 6 4 3 3 5 7 9 11 11 12 12 13 13 15 13 17 18 18 14 14
15 8 8 5 3 4 4 5 5 6 8 9 8 5 4 5 6 6 7 9 10 9 8 7 5 3 1 2 4 6 8 9 10 11 12 13 12 15 12 14 16 17 20
2 6 7 6 5 3 3 4 6 6 6 7 9 9 7 6 5 5 7 8 7 8 9 9 8 6 4 4 5 6 7 8 10 11 13 13 11 12 15 16 16 20 23
5 8 8 9 9 6 3 3 5 6 7 7 8 9 9 8 8 6 5 6 6 6 8 8 7 6 6 6 6 6 6 7 8 8 9 10 11 12 13 14 18 18 20
10 11 13 13 15 13 8 5 4 7 9 10 9 9 8 8 8 7 7 6 5 6 8 8 7 7 7 7 8 8 8 9 9 10 10 12 14 15 16 17 18 19 19
10 9 13 15 15 18 18 10 3 7 9 13 8 8 9 8 7 6 6 6 6 10 9 10 8 10 11 11 10 10 10 9 9 10 13 15 15 16 16 17 18 18 19
14 19 15 16 23 21 6 10 2 9 11 14 12 9 8 7 7 6 6 5 7 8 9 11 11 13 16 14 10 9 9 10 11 13 13 12 13 13 14 14 15 16 17
11 13 11 11 5 7 5 7 9 10 12 16 13 13 11 9 11 7 9 11 10 10 12 12 12 15 17 15 13 12 12 13 14 15 14 15 16 16 16 17 17 18 20
7 8 14 22 13 11 8 8 11 13 13 15 16 13 12 10 12 9 12 9 9 14 11 14 16 18 19 18 16 14 13 13 14 15 15 17 18 19 20 20 20 19 19
16 15 18 19 28 25 19 14 14 17 17 14 16 16 12 9 7 12 14 11 13 16 14 16 15 17 20 17 15 15 15 16 17 18 19 20 21 20 19 18 17 17 17
15 16 16 14 16 19 21 19 18 20 17 20 18 15 11 11 13 12 14 12 15 14 21 19 15 21 21 17 15 15 16 17 18 19 19 20 19 18 18 18 17 17 16
15 16 16 17 17 20 20 16 17 17 16 17 20 14 11 10 11 15 13 16 17 22 14 15 20 20 17 18 18 18 18 18 18 17 17 16 16 16 16 17 17 17 16
13 13 12 12 13 14 14 15 16 17 17 16 16 11 11 11 11 12 13 17 21 13 16 20 18 18 18 17 18 17 16 16 17 18 18 19 19 19 18 17 16 16 16
13 12 13 14 15 14 14 14 14 17 14 19 13 12 13 13 14 14 14 13 10 15 16 15 15 16 16 15 14 13 12 13 14 15 16 17 18 18 18 18 18 17 16
16 17 17 15 12 10 10 12 14 12 12 11 12 11 10 10 9 9 10 11 11 12 12 12 12 12 12 12 12 13 13 13 14 14 14 15 16 18 18 18 17 17 17
13 12 11 9 10 10 9 9 9 9 9 9 8 8 8 8 8 9 9 9 9 9 9 9 9 10 10 10 11 12 12 13 14 16 18 17 17 17 17 17 17 16 16
13 12 12 12 10 7 6 6 6 5 5 5 6 7 7 7 7 7 7 7 7 7 7 7 6 6 9 10 9 9 11 14 17 18 18 18 16 16 17 16 15 15 14
14 14 14 10 7 5 5 4 3 4 5 5 5 6 6 7 8 7 6 6 6 6 5 6 7 9 10 10 8 10 13 16 18 18 18 17 16 16 15 15 14 14 16
15 13 10 7 5 5 4 3 4 4 4 5 5 5 5 5 5 5 5 5 6 6 8 9 9 8 7 8 11 14 17 19 21 20 21 21 19 19 19 19 19 20 21
15 12 9 8 6 5 4 4 4 3 3 4 5 5 5 7 8 8 7 7 9 6 6 8 11 11 11 13 16 17 19 21 22 24 23 23 22 22 22 23 24 25 27
15 12 10 9 7 6 5 4 4 4 2 4 8 10 11 12 12 11 10 10 11 8 9 13 14 16 16 19 21 22 26 26 27 27 26 26 27 27 27 27 27 28 28
14 13 12 11 9 7 5 3 4 4 3 9 11 11 12 12 10 9 11 12 13 14 14 15 17 19 21 24 24 24 27 29 30 30 30 30 30 30 30 30 29 29 29
15 14 13 11 9 6 5 5 7 9 13 17 14 13 12 10 8 11 13 15 17 18 20 20 21 23 25 26 28 30 30 31 31 32 32 31 30 30 29 29 29 29 29
15 16 13 12 10 9 9 10 12 14 18 19 17 11 12 14 14 15 18 20 21 23 23 24 25 27 28 29 29 29 29 29 30 30 31 31 30 30 30 30 30 29 29

GFSGL_700_spd_045.txt.gz
Wind_Speed
19 23 14 11 7 4 4 7 7 7 7 7 7 6 6 9 10 10 11 8 6 5 4 3 4 4 6 9 9 9 10 10 13 11 9 12 20 23 21 20 21 22 21
23 19 11 7 4 2 5 6 5 7 8 7 6 7 8 8 9 9 9 9 7 7 6 5 4 7 5 6 7 7 7 10 12 10 11 13 16 16 23 24 17 15 18
23 17 10 8 4 1 3 5 4 6 7 7 7 7 7 8 7 7 8 9 9 7 6 5 4 4 2 0 2 4 7 9 9 8 12 12 8 13 13 15 20 19 18
8 6 9 7 5 1 3 6 4 4 5 7 8 7 7 7 7 6 7 8 7 7 8 8 5 3 1 2 4 6 8 9 10 11 12 13 14 11 14 17 16 18 20
3 4 7 7 5 3 2 2 3 3 4 6 7 7 7 7 6 6 5 6 6 5 6 7 7 5 4 2 3 5 6 8 9 10 11 12 14 12 14 16 17 22 18
9 6 8 9 9 8 6 4 2 4 5 6 7 8 7 7 7 6 5 5 5 6 7 7 7 7 6 6 6 5 6 7 8 9 10 10 10 12 14 16 17 17 21
6 8 8 10 12 10 10 8 4 13 8 7 8 8 8 8 8 7 6 5 5 6 7 7 6 5 5 6 7 8 9 9 10 10 10 11 13 15 17 18 19 19 19
9 11 12 15 20 20 16 19 20 16 8 8 8 6 7 8 7 6 6 5 5 6 6 8 7 7 9 10 9 8 9 10 10 11 13 15 17 18 17 18 19 18 18
9 16 9 12 10 19 23 13 21 10 9 9 12 12 10 9 9 8 6 6 7 8 7 9 9 8 12 12 11 9 9 9 10 12 14 14 14 15 16 16 17 18 19
10 10 7 4 7 4 3 4 3 9 11 11 12 11 13 13 8 13 9 6 11 8 9 10 11 14 14 15 15 13 12 11 11 11 12 13 14 15 16 17 17 18 18
12 10 10 12 13 15 10 7 6 12 11 13 14 13 12 14 14 12 9 9 11 11 12 13 15 15 15 16 17 14 13 13 13 14 15 16 17 17 17 18 17 16 15
13 17 19 17 18 18 22 20 13 8 16 13 13 15 16 15 13 10 10 10 11 17 14 14 16 20 15 17 17 15 15 15 16 17 17 17 17 17 17 16 16 16 16
13 15 18 18 17 17 15 18 21 18 20 17 14 15 17 13 12 13 14 13 13 11 14 20 17 14 16 18 16 16 16 16 16 16 16 16 16 16 16 17 16 16 16
13 14 16 16 17 19 19 19 19 22 20 16 15 18 19 12 11 14 13 15 12 13 16 22 16 18 18 16 16 15 14 13 13 13 14 14 15 15 15 16 16 16 16
13 13 14 14 13 13 14 14 15 14 12 16 17 15 14 12 11 14 9 13 15 18 23 15 17 17 16 15 14 13 13 14 14 14 14 14 15 16 16 17 17 16 15
13 13 12 13 12 12 13 13 12 16 17 14 13 17 16 14 13 13 13 16 14 12 14 16 15 14 14 13 12 12 12 12 13 13 14 15 16 16 16 16 16 16 16
16 17 16 14 14 14 12 11 13 14 15 15 14 15 13 12 11 12 12 12 12 13 14 13 13 12 11 11 11 11 11 12 14 15 16 17 17 17 16 16 15 15 15
14 13 13 10 9 10 11 12 13 13 12 12 12 11 10 11 12 11 11 11 11 12 11 10 10 9 9 10 11 13 13 14 14 15 15 15 15 14 14 14 13 13 13
12 11 11 11 10 10 9 10 11 11 10 10 9 9 10 10 10 9 9 10 10 9 8 8 8 8 9 11 13 13 13 12 13 14 14 14 14 15 16 16 15 13 12
11 13 13 13 11 9 9 9 8 8 8 9 9 9 9 8 7 6 6 6 5 5 5 5 7 9 11 11 11 12 13 14 15 16 17 17 17 18 18 18 18 18 19
12 12 13 12 10 9 9 8 8 8 8 8 8 7 7 6 5 4 4 4 5 6 8 9 10 10 10 11 13 14 16 17 18 21 20 20 20 20 21 21 21 22 23
13 12 11 11 11 10 9 9 8 8 7 6 6 6 7 6 5 4 5 7 8 7 8 9 10 11 14 16 16 17 19 20 23 25 23 23 23 24 25 25 25 26 26
14 12 12 13 12 11 10 8 8 7 6 5 5 6 7 8 8 8 9 10 10 10 10 13 15 16 17 18 17 20 22 22 23 24 25 25 26 27 27 27 27 28 27
15 14 15 15 13 13 10 9 9 9 10 9 7 10 11 13 13 12 11 13 15 16 16 17 18 19 20 21 22 22 23 24 26 27 27 27 27 27 27 27 27 27 27
18 18 19 17 16 13 12 11 10 9 8 9 12 14 15 16 16 14 17 18 18 19 21 23 23 23 22 22 23 23 25 26 26 27 27 27 27 27 27 27 27 27 27
17 20 21 20 17 17 15 13 12 11 11 16 18 19 19 18 16 18 18 18 21 24 26 26 25 25 24 24 24 24 25 25 26 26 27 27 27 27 27 27 27 26 26

GFSGL_700_spd_048.txt.gz
Wind_Speed
17 21 25 18 12 10 3 1 2 3 4 3 3 4 5 5 6 7 8 8 7 5 4 3 4 5 2 6 8 7 8 8 7 11 10 9 9 17 20 20 22 21 20
17 4 4 15 10 6 3 1 1 4 5 4 2 2 3 4 5 7 9 9 7 6 5 4 4 6 2 3 4 4 5 5 6 8 9 8 10 9 12 18 24 26 22
11 11 14 12 9 6 3 1 1 2 3 3 3 2 2 3 4 6 8 8 8 7 6 4 4 3 3 2 2 2 4 5 6 6 4 7 6 8 10 14 17 18 17
6 5 7 8 7 4 2 2 1 1 2 4 4 4 4 4 4 4 5 6 6 6 7 7 6 4 3 3 4 5 5 6 7 9 9 9 8 10 13 15 14 18 20
0 3 6 7 6 5 4 3 2 2 3 5 6 5 5 5 5 5 5 5 5 5 5 5 5 4 3 3 4 5 7 7 8 9 10 10 10 11 14 15 15 20 18
4 3 7 7 7 7 6 4 3 3 6 8 8 7 6 5 4 3 3 4 4 4 5 5 5 4 4 4 5 6 6 7 8 9 10 10 10 11 13 14 16 18 20
4 5 8 9 9 8 6 7 8 8 14 11 10 7 6 6 5 4 3 3 3 4 4 5 5 5 5 7 8 8 9 10 10 10 11 11 12 14 16 17 17 17 17
6 3 11 16 18 14 13 13 18 19 14 8 8 7 5 6 4 4 3 2 2 3 3 4 6 6 7 8 8 8 8 8 10 10 11 13 15 17 16 16 17 17 18
8 6 5 5 4 5 10 17 22 26 11 8 9 11 9 10 8 3 4 4 4 5 5 5 5 8 11 11 10 11 10 10 10 11 12 13 14 14 15 16 16 17 19
9 9 7 6 3 4 2 1 3 8 8 8 10 10 10 14 12 10 10 8 6 7 7 7 9 11 12 14 13 13 12 11 10 10 11 12 13 14 15 15 16 15 15
10 11 10 8 9 12 10 6 3 11 10 10 12 11 12 15 13 13 6 7 9 11 11 14 12 11 16 19 14 14 12 11 12 12 13 14 14 15 14 14 13 12 12
12 14 15 16 17 16 17 15 19 16 15 11 13 14 14 16 16 10 8 8 8 10 14 12 13 16 17 14 14 12 12 12 12 12 12 12 12 13 14 13 12 12 12
15 15 17 17 18 20 20 18 17 21 22 21 19 18 15 16 19 11 9 12 12 13 14 15 15 19 15 13 12 13 12 12 12 12 12 12 13 14 14 14 13 12 12
14 17 18 19 21 22 22 21 18 17 19 20 22 19 15 17 19 12 11 14 12 12 13 16 19 15 14 14 13 12 11 11 12 12 14 14 15 15 16 15 14 14 13
14 14 16 16 16 18 17 16 18 18 19 16 16 17 19 15 12 12 12 12 13 16 16 17 16 14 14 13 12 11 11 11 11 11 12 13 14 14 15 15 15 14 12
14 13 12 13 14 15 16 15 15 17 14 18 22 20 16 13 15 14 13 13 16 18 14 13 13 12 11 11 11 11 11 11 12 13 14 15 15 16 15 16 15 14 14
15 15 14 13 14 16 17 17 17 19 16 22 19 17 18 17 16 13 12 13 14 14 13 12 12 11 10 9 9 10 11 12 13 14 15 14 14 14 13 12 13 13 12
18 16 14 12 12 12 13 13 14 16 17 16 18 15 15 14 13 13 13 14 14 13 11 11 11 10 9 9 9 10 11 12 13 13 14 14 14 13 12 12 12 13 13
20 16 12 10 11 11 13 14 14 14 15 15 14 14 14 14 14 13 13 13 12 11 10 11 11 10 10 10 10 9 9 11 13 14 14 15 15 14 13 13 13 15 15
20 18 13 11 11 12 13 14 14 14 14 13 13 13 13 13 13 13 13 12 10 11 12 12 11 11 12 12 11 11 12 14 15 15 15 17 16 15 14 14 13 13 13
19 17 14 12 12 12 13 14 14 13 12 12 12 13 13 13 12 11 11 11 11 12 12 11 11 12 12 13 12 14 13 12 14 15 15 17 17 16 16 16 16 16 17
19 17 17 15 13 13 14 14 13 13 12 12 13 13 12 11 11 11 11 11 12 13 13 13 12 10 9 12 16 19 17 16 16 21 22 22 21 18 18 18 18 19 19
21 19 18 16 15 16 16 16 15 13 13 13 12 12 12 11 12 12 12 14 15 15 15 14 14 13 16 17 18 20 20 24 25 25 25 25 25 25 25 25 26 25 24
21 20 18 18 18 18 18 17 16 15 13 11 11 10 10 11 12 14 15 17 17 18 20 20 18 18 19 21 22 24 24 26 27 27 25 26 26 26 26 26 26 26 26
21 21 21 22 21 20 20 17 14 12 12 11 14 14 12 13 14 14 20 19 21 22 22 22 23 23 23 24 25 26 26 27 27 27 26 26 26 26 26 26 27 27 27
20 21 23 22 21 21 20 17 15 14 13 19 16 18 19 22 21 22 23 21 23 27 25 24 26 29 28 28 28 28 27 27 27 26 26 26 26 27 27 27 27 27 27